Regional Weather Roundup
Issued by NWS Cleveland, OH

Home | Current Version | Previous Version | Graphics & Text | Print | Product List | Glossary On
Versions: 1 2 3 4 5 6 7 8 9 10 11 12 13 14 15 16 17 18 19 20 21 22 23 24 25 26 27 28 29 30 31 32 33 34 35 36 37 38 39 40 41 42 43 44 45 46 47 48 49 50
000
ASUS41 KCLE 011212
RWRCLE
OHIO REGIONAL WEATHER ROUNDUP
NATIONAL WEATHER SERVICE WILMINGTON, OH
800 AM EDT SAT OCT 01 2016

NOTE: "FAIR" INDICATES FEW OR NO CLOUDS BELOW 12,000 FEET WITH NO
SIGNIFICANT WEATHER AND/OR OBSTRUCTIONS TO VISIBILITY.

OHZ001>008-015>018-024>027-034-035-043-044-011300-
   NORTHWEST OHIO

CITY           SKY/WX    TMP DP  RH WIND       PRES   REMARKS
DEFIANCE       FAIR      60  57  89 SE6       30.03R FOG
FINDLAY        FAIR      56  53  90 SE7       30.04R FOG
TOLEDO EXPRESS CLOUDY    58  58 100 SE6       30.03S
TOLEDO EXEC    FAIR      58  58 100 SE5       30.05R FOG
LIMA           MOCLDY    53  53 100 SE3       30.04R FOG
$$

OHZ009>014-019>023-028>033-038-089-011300-
   NORTHEAST OHIO

CITY           SKY/WX    TMP DP  RH WIND       PRES   REMARKS
CLE-HOPKINS    CLOUDY    61  56  83 SE6       30.09S
CLE-LAKEFRONT  CLOUDY    61  56  83 SE5       30.07S
CUY CO. ARPT   CLOUDY    61  59  94 SE6       30.09R
LORAIN-ELYRIA  FAIR      56  54  93 CALM      30.07S
ASHTABULA      CLOUDY    58  57  97 SE9       30.11R
AKRON-CANTON   CLOUDY    58  55  90 SE8       30.09R
WOOSTER        CLOUDY    57  56  96 SE3       30.08S FOG
MANSFIELD      MOCLDY    56  56 100 S12       30.07R FOG
YOUNGSTOWN     CLOUDY    57  55  93 SE7       30.11R
$$

OHZ042-051>053-060>062-070>072-077>081-011300-
  SOUTHWEST OHIO

CITY           SKY/WX    TMP DP  RH WIND       PRES   REMARKS
CINC-COVINGTON MOCLDY    52  51  97 SE6       30.04R FOG
CINC-LUNKEN    CLOUDY    55  55 100 CALM      30.06R
HAMILTON       CLOUDY    56  54  93 CALM      30.05R
DAYTON         CLOUDY    54  53  97 SE6       30.05R
WRIGHT-PAT AFB MOCLDY    55  55 100 S3        30.04R
DAYTON GENERAL MOCLDY    54  51  90 SE5       30.04R
WILMINGTON     FAIR      53  52  96 S6        30.05R
$$

OHZ036-037-039>041-045>050-054>059-063>069-073>076-082>088-011300-
  CENTRAL AND SOUTHEAST OHIO

CITY           SKY/WX    TMP DP  RH WIND       PRES   REMARKS
COLUMBUS       FAIR      53  53 100 SE6       30.06R
OSU AIRPORT    MOCLDY    53  53 100 SE5       30.06R FOG
BOLTON FIELD   MOCLDY    52  52 100 CALM      30.06S FOG
RICKENBACK AFB FOG       48  48 100 E5        30.06S VSB<1/4
NEWARK         FOG       55  54  96 CALM      30.07R VSB 1/4
MARION         MOCLDY    53  52  96 SE7       30.06S FOG
LANCASTER      FOG       54  54 100 SE6       30.07S VSB<1/4
ZANESVILLE     FOG       56  56 100 SE5       30.08R VSB<1/4
NEW PHILLY     CLOUDY    59  58  96 SE3       30.10R
$$



USA.gov is the U.S. government's official web portal to all federal, state and local government web resources and services.